Previsão horária em Abdul-Zavod

Hoje, 14 Abril, Quarta-feira

Tempo Temperatura Precipitação Vento Pressão Humidade
00:00 +9°C° 0 mm 2 m/s 763 mmHg 86%
01:00 +8°C° 0 mm 2 m/s 763 mmHg 88%
02:00 +8°C° 0 mm 2 m/s 763 mmHg 91%
03:00 +7°C° 0 mm 2 m/s 763 mmHg 95%
04:00 +7°C° 0 mm 2 m/s 763 mmHg 96%
05:00 +7°C° 0 mm 2 m/s 762 mmHg 97%
06:00 +7°C° 0 mm 2 m/s 762 mmHg 98%
07:00 +8°C° 0 mm 3 m/s 762 mmHg 95%
08:00 +9°C° 0 mm 3 m/s 762 mmHg 91%
09:00 +10°C° 0 mm 4 m/s 762 mmHg 87%
10:00 +12°C° 0 mm 4 m/s 761 mmHg 79%
11:00 +13°C° 0 mm 4 m/s 761 mmHg 71%
12:00 +15°C° 0 mm 4 m/s 760 mmHg 64%
13:00 +17°C° 0 mm 4 m/s 760 mmHg 60%
14:00 +16°C° 0 mm 5 m/s 759 mmHg 56%
15:00 +17°C° 0 mm 5 m/s 759 mmHg 50%
16:00 +17°C° 0 mm 4 m/s 758 mmHg 56%
17:00 +16°C° 0 mm 3 m/s 758 mmHg 63%
18:00 +14°C° 0 mm 3 m/s 758 mmHg 69%
19:00 +13°C° 0 mm 3 m/s 758 mmHg 73%
20:00 +12°C° 0 mm 3 m/s 758 mmHg 76%
21:00 +11°C° 0 mm 3 m/s 758 mmHg 80%
22:00 +10°C° 0 mm 3 m/s 757 mmHg 80%
23:00 +9°C° 0 mm 2 m/s 757 mmHg 80%

Amanhã, 15 Abril, Quinta-feira

Tempo Temperatura Precipitação Vento Pressão Humidade
00:00 +9°C° 0 mm 2 m/s 757 mmHg 80%
01:00 +8°C° 0 mm 2 m/s 757 mmHg 80%
02:00 +8°C° 0 mm 2 m/s 756 mmHg 80%
03:00 +8°C° 0 mm 2 m/s 756 mmHg 81%
04:00 +8°C° 0 mm 2 m/s 756 mmHg 80%
05:00 +8°C° 0 mm 2 m/s 756 mmHg 80%
06:00 +8°C° 0 mm 2 m/s 756 mmHg 80%
07:00 +10°C° 0 mm 2 m/s 756 mmHg 71%
08:00 +12°C° 0 mm 3 m/s 755 mmHg 63%
09:00 +14°C° 0 mm 4 m/s 755 mmHg 55%
10:00 +17°C° 0 mm 4 m/s 755 mmHg 49%
11:00 +19°C° 0 mm 5 m/s 755 mmHg 43%
12:00 +20°C° 0 mm 5 m/s 754 mmHg 38%
13:00 +21°C° 0 mm 5 m/s 754 mmHg 36%
14:00 +21°C° 0 mm 5 m/s 754 mmHg 34%
15:00 +21°C° 0 mm 5 m/s 753 mmHg 32%
16:00 +20°C° 0 mm 4 m/s 753 mmHg 36%
17:00 +18°C° 0 mm 3 m/s 753 mmHg 41%
18:00 +17°C° 0 mm 3 m/s 753 mmHg 46%
19:00 +16°C° 0 mm 2 m/s 753 mmHg 48%
20:00 +15°C° 0 mm 2 m/s 753 mmHg 50%
21:00 +14°C° 0 mm 1 m/s 753 mmHg 51%
22:00 +13°C° 0 mm 1 m/s 753 mmHg 53%
23:00 +13°C° 0 mm 1 m/s 752 mmHg 54%

Depois de amanhã, 16 Abril, Sexta-feira

Tempo Temperatura Precipitação Vento Pressão Humidade
00:00 +12°C° 0 mm 1 m/s 752 mmHg 55%
01:00 +12°C° 0 mm 1 m/s 752 mmHg 57%
02:00 +11°C° 0 mm 1 m/s 752 mmHg 58%
03:00 +11°C° 0 mm 1 m/s 752 mmHg 60%
04:00 +11°C° 0 mm 1 m/s 752 mmHg 60%
05:00 +11°C° 0 mm 1 m/s 752 mmHg 60%
06:00 +11°C° 0 mm 1 m/s 752 mmHg 60%
07:00 +13°C° 0 mm 1 m/s 752 mmHg 55%
08:00 +15°C° 0 mm 1 m/s 753 mmHg 50%
09:00 +16°C° 0 mm 2 m/s 753 mmHg 45%
10:00 +18°C° 0 mm 2 m/s 753 mmHg 42%
11:00 +19°C° 0 mm 2 m/s 753 mmHg 38%
12:00 +20°C° 0 mm 2 m/s 753 mmHg 35%
13:00 +20°C° 0 mm 3 m/s 753 mmHg 33%
14:00 +20°C° 0 mm 3 m/s 753 mmHg 32%
15:00 +21°C° 0 mm 3 m/s 752 mmHg 30%
16:00 +19°C° 0 mm 3 m/s 752 mmHg 36%
17:00 +18°C° 0 mm 3 m/s 752 mmHg 42%
18:00 +17°C° 0 mm 3 m/s 752 mmHg 47%
19:00 +15°C° 0 mm 4 m/s 753 mmHg 57%
20:00 +13°C° 0 mm 5 m/s 753 mmHg 67%
21:00 +11°C° 0 mm 6 m/s 754 mmHg 77%
22:00 +10°C° 0 mm 5 m/s 754 mmHg 80%
23:00 +9°C° 0 mm 5 m/s 754 mmHg 82%

17 Abril, Sábado

Tempo Temperatura Precipitação Vento Pressão Humidade
00:00 +8°C° 0 mm 5 m/s 754 mmHg 85%
01:00 +7°C° 0 mm 4 m/s 754 mmHg 86%
02:00 +7°C° 0 mm 4 m/s 754 mmHg 87%
03:00 +6°C° 0 mm 4 m/s 754 mmHg 88%
04:00 +6°C° 0 mm 4 m/s 754 mmHg 87%
05:00 +6°C° 0 mm 4 m/s 755 mmHg 85%
06:00 +6°C° 0 mm 5 m/s 755 mmHg 84%
07:00 +7°C° 0 mm 5 m/s 755 mmHg 76%
08:00 +8°C° 0 mm 5 m/s 755 mmHg 69%
09:00 +10°C° 0 mm 6 m/s 755 mmHg 61%
10:00 +11°C° 0 mm 6 m/s 755 mmHg 56%
11:00 +13°C° 0 mm 6 m/s 755 mmHg 50%
12:00 +14°C° 0 mm 6 m/s 755 mmHg 44%
13:00 +14°C° 0 mm 6 m/s 755 mmHg 41%
14:00 +14°C° 0 mm 6 m/s 755 mmHg 38%
15:00 +14°C° 0 mm 6 m/s 755 mmHg 34%
16:00 +13°C° 0 mm 6 m/s 755 mmHg 37%
17:00 +12°C° 0 mm 5 m/s 755 mmHg 40%
18:00 +10°C° 0 mm 5 m/s 755 mmHg 43%
19:00 +9°C° 0 mm 5 m/s 755 mmHg 46%
20:00 +8°C° 0 mm 4 m/s 755 mmHg 49%
21:00 +7°C° 0 mm 4 m/s 755 mmHg 53%
22:00 +6°C° 0 mm 4 m/s 755 mmHg 55%
23:00 +5°C° 0 mm 4 m/s 755 mmHg 58%

18 Abril, Domingo

Tempo Temperatura Precipitação Vento Pressão Humidade
00:00 +5°C° 0 mm 3 m/s 755 mmHg 61%
01:00 +4°C° 0 mm 3 m/s 755 mmHg 63%
02:00 +4°C° 0 mm 3 m/s 755 mmHg 65%
03:00 +3°C° 0 mm 3 m/s 755 mmHg 67%
04:00 +3°C° 0 mm 3 m/s 755 mmHg 67%
05:00 +4°C° 0 mm 3 m/s 755 mmHg 67%
06:00 +4°C° 0 mm 3 m/s 755 mmHg 68%
07:00 +6°C° 0 mm 4 m/s 755 mmHg 60%
08:00 +7°C° 0 mm 5 m/s 755 mmHg 53%
09:00 +9°C° 0 mm 5 m/s 755 mmHg 46%
10:00 +9°C° 0 mm 6 m/s 755 mmHg 44%
11:00 +10°C° 0 mm 6 m/s 755 mmHg 42%
12:00 +11°C° 0 mm 6 m/s 755 mmHg 40%
13:00 +11°C° 0 mm 6 m/s 755 mmHg 40%
14:00 +11°C° 0 mm 6 m/s 755 mmHg 40%
15:00 +11°C° 0 mm 7 m/s 755 mmHg 40%
16:00 +10°C° 0 mm 7 m/s 755 mmHg 43%
17:00 +8°C° 0 mm 7 m/s 756 mmHg 47%
18:00 +6°C° 0 mm 8 m/s 756 mmHg 50%
19:00 +5°C° 0 mm 7 m/s 757 mmHg 48%
20:00 +4°C° 0 mm 7 m/s 757 mmHg 45%
21:00 +2°C° 0 mm 7 m/s 758 mmHg 43%
22:00 +2°C° 0 mm 6 m/s 758 mmHg 44%
23:00 +1°C° 0 mm 6 m/s 758 mmHg 45%

19 Abril, Segunda-feira

Tempo Temperatura Precipitação Vento Pressão Humidade
00:00 -1°C° 0 mm 6 m/s 758 mmHg 46%
01:00 -1°C° 0 mm 6 m/s 759 mmHg 49%
02:00 -2°C° 0 mm 6 m/s 759 mmHg 53%
03:00 -2°C° 0 mm 6 m/s 759 mmHg 56%
04:00 -2°C° 0 mm 6 m/s 760 mmHg 56%
05:00 -2°C° 0 mm 6 m/s 760 mmHg 56%
06:00 -2°C° 0 mm 6 m/s 761 mmHg 56%
07:00 -1°C° 0 mm 7 m/s 761 mmHg 49%
08:00 0°C° 0 mm 7 m/s 761 mmHg 41%
09:00 +2°C° 0 mm 7 m/s 762 mmHg 34%
10:00 +3°C° 0 mm 7 m/s 762 mmHg 32%
11:00 +4°C° 0 mm 7 m/s 762 mmHg 30%
12:00 +4°C° 0 mm 7 m/s 762 mmHg 28%
13:00 +5°C° 0 mm 7 m/s 762 mmHg 28%
14:00 +5°C° 0 mm 7 m/s 763 mmHg 27%
15:00 +5°C° 0 mm 7 m/s 763 mmHg 27%
16:00 +4°C° 0 mm 6 m/s 763 mmHg 30%
17:00 +3°C° 0 mm 6 m/s 763 mmHg 32%
18:00 +3°C° 0 mm 5 m/s 764 mmHg 35%
19:00 +3°C° 0 mm 4 m/s 764 mmHg 38%
20:00 +1°C° 0 mm 4 m/s 764 mmHg 41%
21:00 +1°C° 0 mm 3 m/s 765 mmHg 44%
22:00 0°C° 0 mm 3 m/s 765 mmHg 46%
23:00 0°C° 0 mm 3 m/s 765 mmHg 47%
Mostrar mais

Necessitamos do seu Consentimento

A Meteoprog e os seus Fornecedores de Serviços podem armazenar e aceder a dados pessoais como cookies, identificadores do dispositivo ou outras tecnologias semelhantes existentes no seu dispositivo e processar estes dados para personalizar conteúdos e anúncios, assim como funcionalidades nas redes sociais e análise de tráfego.

  • Armazenar e/ou aceder a informações no seu dispositivo

    Os cookies, identificadores do dispositivo ou outras informações podem ser armazenados ou acedidos no seu dispositivo, para os fins acima indicados.

  • Anúncios e conteúdos personalizados, medição de anúncios e conteúdos, dados sobre o público-alvo e desenvolvimento de produtos

    Os anúncios e os conteúdos podem ser personalizados com base num perfil. Podem ser adicionados dados adicionais para uma maior personalização dos anúncios e dos conteúdos. A eficácia dos anúncios e dos conteúdos pode ser medida. Podem ser obtidas informações sobre o público que visualizou os anúncios e os conteúdos. Estes dados podem ser usados para desenvolver ou melhorar sistemas, softwares ou a experiência do utilizador.

Ao clicar em "Eu concordo”, permitirá o uso de cookies, identificadores do dispositivo e web beacons mencionados ou outras tecnologias semelhantes. As configurações do navegador do seu dispositivo podem ser alteradas.

Para certos fins, podem ser invocados interesses legítimos ao invés de consentimento. Pode ler mais informação sobre este assunto na nossa Política de Privacidade e Cookies.